| time (UTC) | temp C | wind direction | speed KPH | gust KPH | rain 1hr cm | rain 24hr cm | rain mn cm | humidity % | barometer mb |
| 20260902123423 | 18 | 268 | 0.0 | 0.0 | 0.00 | 0.00 | 0.00 | 93 | 1019.3 |
| 20260902122920 | 18 | 244 | 0.0 | 0.0 | 0.00 | 0.00 | 0.00 | 93 | 1019.2 |
| 20260902122417 | 18 | 288 | 0.0 | 0.0 | 0.00 | 0.00 | 0.00 | 93 | 1019.1 |
| 20260902121912 | 18 | 259 | 0.0 | 0.0 | 0.00 | 0.00 | 0.00 | 94 | 1019.4 |
| 20260902121407 | 18 | 189 | 0.0 | 0.0 | 0.00 | 0.00 | 0.00 | 95 | 1019.4 |
| 20260902120902 | 18 | 256 | 0.0 | 0.0 | 0.00 | 0.00 | 0.00 | 95 | 1019.2 |
| 20260902120358 | 18 | 326 | 0.0 | 0.0 | 0.00 | 0.00 | 0.00 | 95 | 1019.2 |
| 20260902115858 | 18 | 237 | 0.0 | 0.0 | 0.00 | 0.00 | 0.00 | 96 | 1019.3 |
| 20260902115354 | 18 | 338 | 0.0 | 0.0 | 0.00 | 0.00 | 0.00 | 97 | 1019.2 |
| 20260902114850 | 18 | 234 | 0.0 | 0.0 | 0.00 | 0.00 | 0.00 | 97 | 1019.4 |
| 20260902114345 | 18 | 203 | 0.0 | 0.0 | 0.00 | 0.00 | 0.00 | 97 | 1019.2 |
| 20260902113840 | 18 | 247 | 0.0 | 0.0 | 0.00 | 0.00 | 0.00 | 97 | 1019.3 |
| 20260902113336 | 18 | 273 | 0.0 | 0.0 | 0.00 | 0.00 | 0.00 | 97 | 1019.1 |
| 20260902112835 | 18 | 305 | 0.0 | 0.0 | 0.00 | 0.00 | 0.00 | 98 | 1019.1 |
| 20260902112332 | 18 | 276 | 0.0 | 0.0 | 0.00 | 0.00 | 0.00 | 98 | 1019.1 |
| 20260902111827 | 18 | 283 | 0.0 | 0.0 | 0.00 | 0.00 | 0.00 | 98 | 1019.2 |
| 20260902111324 | 19 | 292 | 0.0 | 0.0 | 0.00 | 0.00 | 0.00 | 98 | 1019.0 |
| 20260902110819 | 19 | 255 | 0.0 | 0.0 | 0.00 | 0.00 | 0.00 | 98 | 1018.7 |
| 20260902110315 | 19 | 278 | 0.0 | 0.0 | 0.00 | 0.00 | 0.00 | 98 | 1019.3 |
| 20260902105814 | 19 | 256 | 0.0 | 0.0 | 0.00 | 0.00 | 0.00 | 97 | 1019.1 |
| 20260902105309 | 19 | 202 | 0.0 | 0.0 | 0.00 | 0.00 | 0.00 | 97 | 1018.9 |
| 20260902104804 | 19 | 214 | 0.0 | 0.0 | 0.00 | 0.00 | 0.00 | 97 | 1018.9 |
| 20260902104301 | 19 | 286 | 0.0 | 0.0 | 0.00 | 0.00 | 0.00 | 98 | 1019.1 |
| 20260902103755 | 19 | 329 | 0.0 | 0.0 | 0.00 | 0.00 | 0.00 | 98 | 1018.9 |
| 20260902103254 | 19 | 284 | 0.0 | 0.0 | 0.00 | 0.00 | 0.00 | 98 | 1018.8 |
| 20260902102750 | 19 | 265 | 0.0 | 0.0 | 0.00 | 0.00 | 0.00 | 98 | 1018.9 |
| 20260902102248 | 18 | 289 | 0.0 | 0.0 | 0.00 | 0.00 | 0.00 | 98 | 1018.8 |
| 20260902101743 | 19 | 274 | 0.0 | 0.0 | 0.00 | 0.00 | 0.00 | 98 | 1018.5 |
| 20260902101238 | 18 | 175 | 0.0 | 0.0 | 0.00 | 0.00 | 0.00 | 98 | 1018.5 |
| 20260902100737 | 19 | 191 | 0.0 | 0.0 | 0.00 | 0.00 | 0.00 | 98 | 1018.6 |
| 20260902100232 | 18 | 253 | 0.0 | 0.0 | 0.00 | 0.00 | 0.00 | 98 | 1018.5 |
| 20260902095732 | 19 | 281 | 0.0 | 0.0 | 0.00 | 0.00 | 0.00 | 98 | 1018.5 |
| 20260902095226 | 19 | 283 | 0.0 | 0.0 | 0.00 | 0.00 | 0.00 | 98 | 1018.2 |
| 20260902094721 | 19 | 270 | 0.0 | 0.0 | 0.00 | 0.00 | 0.00 | 98 | 1018.2 |
| 20260902094217 | 19 | 197 | 0.0 | 0.0 | 0.00 | 0.00 | 0.00 | 98 | 1018.3 |
| 20260902093715 | 19 | 253 | 0.0 | 0.0 | 0.00 | 0.00 | 0.00 | 98 | 1018.3 |
| 20260902093211 | 19 | 204 | 0.0 | 0.0 | 0.00 | 0.00 | 0.00 | 98 | 1018.4 |
| 20260902092706 | 19 | 193 | 0.0 | 0.0 | 0.00 | 0.00 | 0.00 | 98 | 1018.4 |
| 20260902092201 | 19 | 302 | 0.0 | 0.0 | 0.00 | 0.00 | 0.00 | 98 | 1018.3 |
| 20260902091701 | 19 | 315 | 0.0 | 0.0 | 0.00 | 0.00 | 0.00 | 98 | 1018.3 |
| 20260902091158 | 19 | 193 | 0.0 | 0.0 | 0.00 | 0.00 | 0.00 | 99 | 1018.4 |
| 20260902090654 | 19 | 163 | 0.0 | 0.0 | 0.00 | 0.00 | 0.00 | 98 | 1018.1 |
| 20260902090152 | 19 | 245 | 0.0 | 0.0 | 0.00 | 0.00 | 0.00 | 98 | 1018.3 |
| 20260902085647 | 19 | 281 | 0.0 | 0.0 | 0.00 | 0.00 | 0.00 | 98 | 1018.2 |
| 20260902085142 | 19 | 191 | 0.0 | 0.0 | 0.00 | 0.00 | 0.00 | 98 | 1018.0 |
| 20260902084638 | 19 | 151 | 0.0 | 0.0 | 0.00 | 0.00 | 0.00 | 97 | 1018.3 |
| 20260902084134 | 19 | 168 | 0.0 | 0.0 | 0.00 | 0.00 | 0.00 | 96 | 1018.0 |
| 20260902083629 | 19 | 196 | 0.0 | 0.0 | 0.00 | 0.00 | 0.00 | 96 | 1018.1 |
| 20260902083128 | 19 | 145 | 0.0 | 0.0 | 0.00 | 0.00 | 0.00 | 96 | 1018.2 |
| 20260902082624 | 19 | 299 | 0.0 | 0.0 | 0.00 | 0.00 | 0.00 | 95 | 1018.1 |
| 20260902082120 | 19 | 288 | 0.0 | 0.0 | 0.00 | 0.00 | 0.00 | 95 | 1018.3 |
| 20260902081617 | 19 | 211 | 0.0 | 0.0 | 0.00 | 0.00 | 0.00 | 95 | 1017.8 |
| 20260902081116 | 19 | 275 | 0.0 | 0.0 | 0.00 | 0.00 | 0.00 | 95 | 1018.0 |
| 20260902080611 | 19 | 259 | 0.0 | 0.0 | 0.00 | 0.00 | 0.00 | 95 | 1017.9 |
| 20260902080108 | 19 | 286 | 0.0 | 0.0 | 0.00 | 0.00 | 0.00 | 95 | 1018.0 |
| 20260902075608 | 19 | 305 | 0.0 | 0.0 | 0.00 | 0.00 | 0.00 | 95 | 1017.9 |
| 20260902075104 | 19 | 270 | 0.0 | 0.0 | 0.00 | 0.00 | 0.00 | 96 | 1018.0 |
| 20260902074559 | 19 | 260 | 0.0 | 0.0 | 0.00 | 0.00 | 0.00 | 95 | 1017.8 |
| 20260902074054 | 19 | 163 | 0.0 | 0.0 | 0.00 | 0.00 | 0.00 | 96 | 1018.1 |
| 20260902073549 | 19 | 294 | 0.0 | 0.0 | 0.00 | 0.00 | 0.00 | 96 | 1017.7 |
| 20260902073045 | 19 | 327 | 0.0 | 0.0 | 0.00 | 0.00 | 0.00 | 96 | 1017.6 |
| 20260902072541 | 19 | 212 | 0.0 | 0.0 | 0.00 | 0.00 | 0.00 | 96 | 1017.7 |
| 20260902072038 | 19 | 172 | 0.0 | 0.0 | 0.00 | 0.00 | 0.00 | 96 | 1017.3 |
| 20260902071537 | 19 | 161 | 0.0 | 0.0 | 0.00 | 0.00 | 0.00 | 96 | 1017.5 |
| 20260902071034 | 19 | 288 | 0.0 | 0.0 | 0.00 | 0.00 | 0.00 | 96 | 1017.5 |
| 20260902070529 | 19 | 317 | 0.0 | 0.0 | 0.00 | 0.00 | 0.00 | 96 | 1017.6 |
| 20260902070023 | 19 | 125 | 0.0 | 0.0 | 0.00 | 0.00 | 0.00 | 96 | 1017.4 |
| 20260902065517 | 19 | 267 | 0.0 | 0.0 | 0.00 | 0.00 | 0.00 | 96 | 1017.5 |
| 20260902065013 | 19 | 286 | 0.0 | 0.0 | 0.00 | 0.00 | 0.00 | 96 | 1017.4 |
| 20260902064509 | 19 | 232 | 0.0 | 0.0 | 0.00 | 0.00 | 0.00 | 96 | 1017.3 |
| 20260902064004 | 19 | 326 | 0.0 | 0.0 | 0.00 | 0.00 | 0.00 | 96 | 1017.5 |
| 20260902063503 | 19 | 276 | 0.0 | 0.0 | 0.00 | 0.00 | 0.00 | 96 | 1017.6 |
| 20260902062959 | 19 | 158 | 0.0 | 0.0 | 0.00 | 0.00 | 0.00 | 96 | 1017.5 |
| 20260902062457 | 19 | 214 | 0.0 | 0.0 | 0.00 | 0.00 | 0.00 | 96 | 1017.6 |
| 20260902061952 | 19 | 213 | 0.0 | 0.0 | 0.00 | 0.00 | 0.00 | 96 | 1017.7 |
| 20260902061442 | 19 | 333 | 0.0 | 0.0 | 0.00 | 0.00 | 0.00 | 96 | 1017.7 |
| 20260902060938 | 19 | 283 | 0.0 | 0.0 | 0.00 | 0.00 | 0.00 | 97 | 1017.8 |
| 20260902060434 | 19 | 247 | 0.0 | 0.0 | 0.00 | 0.00 | 0.00 | 97 | 1017.7 |
| 20260902055930 | 19 | 322 | 0.0 | 0.0 | 0.00 | 0.00 | 0.00 | 96 | 1017.7 |
| 20260902055426 | 19 | 161 | 0.0 | 0.0 | 0.00 | 0.00 | 0.00 | 97 | 1018.0 |
| 20260902054921 | 19 | 226 | 0.0 | 0.0 | 0.00 | 0.00 | 0.00 | 96 | 1017.9 |
| 20260902054416 | 19 | 286 | 0.0 | 0.0 | 0.00 | 0.00 | 0.00 | 96 | 1017.9 |
| 20260902053911 | 19 | 250 | 0.0 | 0.0 | 0.00 | 0.00 | 0.00 | 96 | 1017.7 |
| 20260902053407 | 19 | 296 | 0.0 | 0.0 | 0.00 | 0.00 | 0.00 | 96 | 1018.0 |
| 20260902052905 | 20 | 272 | 0.0 | 0.0 | 0.00 | 0.00 | 0.00 | 96 | 1018.0 |
| 20260902052401 | 20 | 170 | 0.0 | 0.0 | 0.00 | 0.00 | 0.00 | 96 | 1018.0 |
| 20260902051856 | 20 | 182 | 0.0 | 0.0 | 0.00 | 0.00 | 0.00 | 96 | 1017.9 |
| 20260902051356 | 20 | 169 | 0.0 | 0.0 | 0.00 | 0.00 | 0.00 | 97 | 1018.0 |
| 20260902050850 | 20 | 269 | 0.0 | 0.0 | 0.00 | 0.00 | 0.00 | 97 | 1017.9 |
| 20260902050349 | 20 | 301 | 0.0 | 0.0 | 0.00 | 0.00 | 0.00 | 97 | 1017.9 |
| 20260902045844 | 20 | 285 | 0.0 | 0.0 | 0.00 | 0.00 | 0.00 | 97 | 1017.8 |
| 20260902045340 | 20 | 256 | 0.0 | 0.0 | 0.00 | 0.00 | 0.00 | 98 | 1017.6 |
| 20260902044836 | 20 | 334 | 0.0 | 0.0 | 0.00 | 0.00 | 0.00 | 97 | 1017.5 |
| 20260902044331 | 20 | 233 | 0.0 | 0.0 | 0.00 | 0.00 | 0.00 | 98 | 1017.7 |
| 20260902043827 | 20 | 285 | 0.0 | 0.0 | 0.00 | 0.00 | 0.00 | 98 | 1017.6 |
| 20260902043321 | 20 | 296 | 0.0 | 0.0 | 0.00 | 0.00 | 0.00 | 98 | 1017.6 |
| 20260902042821 | 20 | 234 | 0.0 | 0.0 | 0.00 | 0.00 | 0.00 | 98 | 1017.4 |
| 20260902042316 | 20 | 172 | 0.0 | 0.0 | 0.00 | 0.00 | 0.00 | 98 | 1017.4 |
| 20260902041811 | 20 | 225 | 0.0 | 0.0 | 0.00 | 0.00 | 0.00 | 99 | 1017.4 |
| 20260902041311 | 20 | 290 | 0.0 | 0.0 | 0.00 | 0.00 | 0.00 | 99 | 1017.5 |
| 20260902040809 | 20 | 127 | 0.0 | 0.0 | 0.00 | 0.00 | 0.00 | 99 | 1017.5 |
| 20260902040305 | 20 | 264 | 0.0 | 0.0 | 0.00 | 0.00 | 0.00 | 99 | 1017.5 |
| 20260902035804 | 20 | 293 | 0.0 | 0.0 | 0.00 | 0.00 | 0.00 | 99 | 1017.2 |
| 20260902035300 | 20 | 217 | 0.0 | 0.0 | 0.00 | 0.00 | 0.00 | 99 | 1017.0 |
| 20260902034758 | 19 | 327 | 0.0 | 0.0 | 0.00 | 0.00 | 0.00 | 99 | 1017.0 |
| 20260902034254 | 19 | 297 | 0.0 | 0.0 | 0.00 | 0.00 | 0.00 | 99 | 1016.7 |
| 20260902033752 | 19 | 185 | 0.0 | 0.0 | 0.00 | 0.00 | 0.00 | 99 | 1016.7 |
| 20260902033247 | 19 | 281 | 0.0 | 0.0 | 0.00 | 0.00 | 0.00 | 99 | 1016.5 |
| 20260902032745 | 19 | 287 | 0.0 | 0.0 | 0.00 | 0.00 | 0.00 | 99 | 1016.4 |
| 20260902032241 | 19 | 288 | 0.0 | 0.0 | 0.00 | 0.00 | 0.00 | 99 | 1016.3 |
| 20260902031740 | 19 | 336 | 0.0 | 0.0 | 0.00 | 0.00 | 0.00 | 99 | 1016.4 |
| 20260902031236 | 19 | 283 | 0.0 | 0.0 | 0.00 | 0.00 | 0.00 | 99 | 1016.3 |
| 20260902030731 | 19 | 20 | 0.0 | 0.0 | 0.00 | 0.00 | 0.00 | 99 | 1016.5 |
| 20260902030226 | 19 | 229 | 0.0 | 0.0 | 0.00 | 0.00 | 0.00 | 99 | 1016.6 |
| 20260902025725 | 19 | 275 | 0.0 | 0.0 | 0.00 | 0.74 | 0.74 | 99 | 1016.4 |
| 20260902025220 | 19 | 290 | 0.0 | 0.0 | 0.00 | 0.74 | 0.74 | 99 | 1016.5 |
| 20260902024715 | 19 | 301 | 0.0 | 0.0 | 0.00 | 0.74 | 0.74 | 99 | 1016.6 |
| 20260902024211 | 19 | 269 | 0.0 | 0.0 | 0.00 | 0.74 | 0.74 | 99 | 1016.6 |
| 20260902023706 | 19 | 262 | 0.0 | 0.0 | 0.00 | 0.74 | 0.74 | 99 | 1016.4 |
| 20260902023201 | 19 | 127 | 0.0 | 0.0 | 0.00 | 0.74 | 0.74 | 99 | 1016.5 |
| 20260902022701 | 19 | 251 | 0.0 | 0.0 | 0.00 | 0.74 | 0.74 | 99 | 1016.2 |
| 20260902022156 | 19 | 324 | 0.0 | 0.0 | 0.00 | 0.74 | 0.74 | 99 | 1016.4 |
| 20260902021652 | 19 | 312 | 0.0 | 0.0 | 0.00 | 0.74 | 0.74 | 99 | 1016.2 |
| 20260902021146 | 19 | 254 | 0.0 | 0.0 | 0.00 | 0.74 | 0.74 | 99 | 1015.8 |
| 20260902020642 | 19 | 248 | 0.0 | 0.0 | 0.00 | 0.74 | 0.74 | 99 | 1015.8 |
| 20260902020138 | 19 | 243 | 0.0 | 0.0 | 0.00 | 0.74 | 0.74 | 99 | 1015.8 |
| 20260902015633 | 19 | 248 | 0.0 | 0.0 | 0.00 | 0.74 | 0.74 | 99 | 1015.9 |
| 20260902015130 | 20 | 266 | 0.0 | 0.0 | 0.00 | 0.74 | 0.74 | 99 | 1015.4 |
| 20260902014625 | 20 | 294 | 0.0 | 0.0 | 0.00 | 0.74 | 0.74 | 99 | 1015.5 |
| 20260902014120 | 20 | 245 | 0.0 | 0.0 | 0.00 | 0.74 | 0.74 | 99 | 1015.3 |
| 20260902013620 | 20 | 278 | 0.0 | 0.0 | 0.00 | 0.74 | 0.74 | 99 | 1015.3 |
| 20260902013115 | 20 | 255 | 0.0 | 0.0 | 0.00 | 0.74 | 0.74 | 99 | 1015.2 |
| 20260902012611 | 20 | 241 | 0.0 | 0.0 | 0.00 | 0.74 | 0.74 | 99 | 1015.1 |
| 20260902012106 | 20 | 299 | 0.0 | 0.0 | 0.00 | 0.74 | 0.74 | 99 | 1014.9 |
| 20260902011602 | 20 | 162 | 0.0 | 0.0 | 0.00 | 0.74 | 0.74 | 99 | 1015.0 |
| 20260902011101 | 21 | 258 | 0.0 | 0.0 | 0.00 | 0.74 | 0.74 | 99 | 1014.6 |
| 20260902010601 | 21 | 230 | 0.0 | 0.0 | 0.00 | 0.74 | 0.74 | 99 | 1014.5 |
| 20260902010057 | 21 | 314 | 0.0 | 0.0 | 0.00 | 0.74 | 0.74 | 99 | 1014.4 |
| 20260902005554 | 21 | 180 | 0.0 | 0.0 | 0.00 | 0.74 | 0.74 | 99 | 1014.5 |
| 20260902005051 | 21 | 293 | 0.0 | 0.0 | 0.00 | 0.74 | 0.74 | 99 | 1014.4 |
| 20260902004550 | 21 | 253 | 0.0 | 0.0 | 0.00 | 0.74 | 0.74 | 99 | 1014.6 |
| 20260902004045 | 21 | 176 | 0.0 | 0.0 | 0.00 | 0.74 | 0.74 | 99 | 1014.5 |
| 20260902003541 | 21 | 182 | 0.0 | 0.0 | 0.00 | 0.74 | 0.74 | 99 | 1014.6 |
| 20260902003036 | 21 | 316 | 0.0 | 0.0 | 0.00 | 0.74 | 0.74 | 99 | 1014.3 |
| 20260902002532 | 21 | 206 | 0.0 | 0.0 | 0.00 | 0.74 | 0.74 | 99 | 1014.3 |
| 20260902002026 | 22 | 256 | 0.0 | 0.0 | 0.00 | 0.74 | 0.74 | 99 | 1014.4 |
| 20260902001521 | 22 | 207 | 0.0 | 0.0 | 0.00 | 0.74 | 0.74 | 99 | 1014.6 |
| 20260902001016 | 22 | 282 | 0.0 | 0.0 | 0.00 | 0.74 | 0.74 | 99 | 1014.6 |
| 20260902000511 | 22 | 215 | 0.0 | 0.0 | 0.00 | 0.74 | 0.74 | 99 | 1014.4 |
| 20260902000007 | 22 | 223 | 0.0 | 0.0 | 0.00 | 0.74 | 0.74 | 99 | 1014.3 |
| 20260901235501 | 23 | 302 | 0.0 | 0.0 | 0.00 | 0.74 | 0.74 | 99 | 1014.3 |
| 20260901234956 | 23 | 84 | 0.0 | 0.0 | 0.13 | 0.74 | 0.74 | 99 | 1014.3 |
| 20260901234450 | 23 | 63 | 0.0 | 0.0 | 0.13 | 0.74 | 0.74 | 99 | 1014.3 |
| 20260901233950 | 23 | 31 | 0.0 | 0.0 | 0.00 | 0.71 | 0.71 | 99 | 1014.2 |
| 20260901233445 | 23 | 97 | 0.0 | 0.0 | 0.00 | 0.71 | 0.71 | 99 | 1014.3 |
| 20260901232942 | 23 | 282 | 0.0 | 0.0 | 0.00 | 0.71 | 0.71 | 99 | 1013.9 |
| 20260901232436 | 23 | 272 | 0.0 | 0.0 | 0.18 | 0.71 | 0.71 | 99 | 1013.7 |
| 20260901231931 | 23 | 279 | 0.0 | 0.0 | 0.18 | 0.71 | 0.71 | 99 | 1014.4 |
| 20260901231428 | 23 | 294 | 0.0 | 0.0 | 0.00 | 0.69 | 0.69 | 99 | 1014.0 |
| 20260901230924 | 23 | 20 | 0.0 | 0.0 | 0.13 | 0.69 | 0.69 | 99 | 1014.1 |
| 20260901230423 | 23 | 51 | 0.0 | 0.0 | 0.13 | 0.69 | 0.69 | 99 | 1013.5 |
| 20260901225918 | 23 | 33 | 0.0 | 0.0 | 0.00 | 0.66 | 0.66 | 99 | 1013.8 |
| 20260901225413 | 23 | 232 | 0.0 | 0.0 | 0.00 | 0.66 | 0.66 | 99 | 1013.9 |
| 20260901224908 | 23 | 306 | 0.0 | 0.0 | 0.00 | 0.66 | 0.66 | 99 | 1013.9 |
| 20260901224404 | 23 | 101 | 0.0 | 0.0 | 0.00 | 0.66 | 0.66 | 99 | 1013.9 |
| 20260901223900 | 23 | 73 | 0.0 | 0.0 | 0.00 | 0.66 | 0.66 | 99 | 1014.0 |
| 20260901223355 | 23 | 93 | 0.0 | 0.0 | 0.18 | 0.66 | 0.66 | 99 | 1013.5 |
| 20260901222851 | 23 | 75 | 0.0 | 0.0 | 1.55 | 0.66 | 0.66 | 99 | 1013.4 |
| 20260901222347 | 23 | 29 | 0.0 | 0.0 | 2.46 | 0.64 | 0.64 | 99 | 1013.3 |
| 20260901221843 | 23 | 118 | 0.0 | 0.0 | 1.37 | 0.41 | 0.41 | 99 | 1013.6 |
| 20260901221338 | 24 | 22 | 0.0 | 0.0 | 0.48 | 0.25 | 0.25 | 96 | 1013.5 |
| 20260901220838 | 25 | 278 | 0.0 | 0.0 | 0.00 | 0.18 | 0.18 | 93 | 1013.3 |
| 20260901220337 | 25 | 9 | 0.0 | 0.0 | 0.00 | 0.18 | 0.18 | 91 | 1013.3 |
| 20260901215836 | 25 | 273 | 0.0 | 0.0 | 0.00 | 0.18 | 0.18 | 90 | 1013.3 |
| 20260901215335 | 25 | 347 | 0.0 | 0.0 | 0.00 | 0.18 | 0.18 | 89 | 1013.4 |
| 20260901214834 | 25 | 39 | 0.0 | 0.0 | 0.00 | 0.18 | 0.18 | 89 | 1013.4 |
| 20260901214333 | 25 | 282 | 0.0 | 0.0 | 0.00 | 0.18 | 0.18 | 89 | 1013.2 |
| 20260901213828 | 25 | 331 | 0.0 | 0.0 | 0.00 | 0.18 | 0.18 | 89 | 1013.5 |
| 20260901213328 | 26 | 285 | 0.0 | 0.0 | 0.00 | 0.18 | 0.18 | 88 | 1013.1 |
| 20260901212822 | 26 | 337 | 0.0 | 0.0 | 0.00 | 0.18 | 0.18 | 88 | 1013.4 |
| 20260901212318 | 26 | 264 | 0.0 | 0.0 | 0.00 | 0.18 | 0.18 | 87 | 1013.3 |
| 20260901211814 | 26 | 334 | 0.0 | 0.0 | 0.00 | 0.18 | 0.18 | 86 | 1013.0 |
| 20260901211310 | 27 | 272 | 0.0 | 0.0 | 0.00 | 0.18 | 0.18 | 85 | 1013.5 |
| 20260901210805 | 27 | 357 | 0.0 | 0.0 | 0.00 | 0.18 | 0.18 | 84 | 1013.2 |
| 20260901210301 | 27 | 344 | 0.0 | 0.0 | 0.00 | 0.18 | 0.18 | 84 | 1013.2 |
| 20260901205757 | 27 | 268 | 0.0 | 0.0 | 0.00 | 0.18 | 0.18 | 84 | 1013.3 |
| 20260901205256 | 27 | 338 | 0.0 | 0.0 | 0.00 | 0.18 | 0.18 | 83 | 1013.1 |
| 20260901204752 | 28 | 226 | 0.0 | 0.0 | 0.00 | 0.18 | 0.18 | 82 | 1013.1 |
| 20260901204248 | 27 | 278 | 0.0 | 0.0 | 0.00 | 0.18 | 0.18 | 83 | 1013.1 |
| 20260901203742 | 28 | 208 | 0.0 | 0.0 | 0.00 | 0.18 | 0.18 | 83 | 1013.2 |
| 20260901203237 | 27 | 4 | 0.0 | 0.0 | 0.00 | 0.18 | 0.18 | 83 | 1013.3 |
| 20260901202736 | 28 | 250 | 0.0 | 0.0 | 0.00 | 0.18 | 0.18 | 83 | 1013.2 |
| 20260901202232 | 28 | 226 | 0.0 | 0.0 | 0.00 | 0.18 | 0.18 | 82 | 1013.3 |
| 20260901201727 | 28 | 37 | 0.0 | 0.0 | 0.00 | 0.18 | 0.18 | 80 | 1013.3 |
| 20260901201226 | 28 | 136 | 0.0 | 0.0 | 0.00 | 0.18 | 0.18 | 81 | 1013.3 |
| 20260901200720 | 27 | 87 | 0.0 | 0.0 | 0.00 | 0.18 | 0.18 | 83 | 1013.5 |
| 20260901200216 | 28 | 80 | 0.0 | 0.0 | 0.00 | 0.18 | 0.18 | 82 | 1013.3 |
| 20260901195713 | 28 | 18 | 0.0 | 0.0 | 0.00 | 0.18 | 0.18 | 80 | 1013.2 |
| 20260901195207 | 28 | 324 | 0.0 | 0.0 | 0.00 | 0.18 | 0.18 | 82 | 1013.2 |
| 20260901194704 | 28 | 313 | 0.0 | 0.0 | 0.00 | 0.18 | 0.18 | 81 | 1013.1 |
| 20260901194153 | 27 | 76 | 0.0 | 0.0 | 0.00 | 0.18 | 0.18 | 82 | 1013.2 |
| 20260901193648 | 27 | 118 | 0.0 | 0.0 | 0.00 | 0.18 | 0.18 | 82 | 1013.5 |
| 20260901193142 | 28 | 96 | 0.0 | 0.0 | 0.00 | 0.18 | 0.18 | 80 | 1013.4 |
| 20260901192637 | 28 | 111 | 0.0 | 0.0 | 0.00 | 0.18 | 0.18 | 79 | 1013.4 |
| 20260901192132 | 27 | 132 | 0.0 | 0.0 | 0.00 | 0.18 | 0.18 | 81 | 1013.4 |
| 20260901191628 | 27 | 33 | 0.0 | 0.0 | 0.00 | 0.18 | 0.18 | 81 | 1013.5 |
| 20260901191124 | 27 | 349 | 0.0 | 0.0 | 0.00 | 0.18 | 0.18 | 82 | 1013.7 |
| 20260901190620 | 27 | 317 | 0.0 | 0.0 | 0.00 | 0.18 | 0.18 | 83 | 1013.6 |
| 20260901190119 | 27 | 68 | 0.0 | 0.0 | 0.00 | 0.18 | 0.18 | 84 | 1013.6 |
| 20260901185617 | 27 | 82 | 0.0 | 0.0 | 0.00 | 0.18 | 0.18 | 85 | 1013.5 |
| 20260901185116 | 27 | 56 | 0.0 | 0.0 | 0.00 | 0.18 | 0.18 | 85 | 1013.4 |
| 20260901184613 | 27 | 96 | 0.0 | 0.0 | 0.00 | 0.18 | 0.18 | 85 | 1013.4 |
| 20260901184108 | 26 | 124 | 0.0 | 0.0 | 0.00 | 0.18 | 0.18 | 86 | 1013.6 |
| 20260901183607 | 26 | 106 | 0.0 | 0.0 | 0.00 | 0.18 | 0.18 | 86 | 1013.8 |
| 20260901183103 | 26 | 288 | 0.0 | 0.0 | 0.00 | 0.18 | 0.18 | 86 | 1013.6 |
| 20260901182600 | 26 | 98 | 0.0 | 0.0 | 0.00 | 0.18 | 0.18 | 86 | 1013.5 |
| 20260901182059 | 26 | 97 | 0.0 | 0.0 | 0.00 | 0.18 | 0.18 | 85 | 1013.6 |
| 20260901181558 | 26 | 149 | 0.0 | 0.0 | 0.00 | 0.18 | 0.18 | 86 | 1013.5 |
| 20260901181052 | 26 | 87 | 0.0 | 0.0 | 0.00 | 0.18 | 0.18 | 86 | 1013.5 |
| 20260901180551 | 26 | 115 | 0.0 | 0.0 | 0.00 | 0.18 | 0.18 | 87 | 1013.4 |
| 20260901180046 | 26 | 119 | 0.0 | 0.0 | 0.00 | 0.18 | 0.18 | 87 | 1013.4 |
| 20260901175539 | 26 | 76 | 0.0 | 0.0 | 0.00 | 0.18 | 0.18 | 89 | 1013.2 |
| 20260901175034 | 26 | 157 | 0.0 | 0.0 | 0.00 | 0.18 | 0.18 | 90 | 1013.2 |
| 20260901174530 | 26 | 93 | 0.0 | 0.0 | 0.00 | 0.18 | 0.18 | 90 | 1013.4 |
| 20260901174026 | 26 | 104 | 0.0 | 0.0 | 0.00 | 0.18 | 0.18 | 90 | 1013.1 |
| 20260901173526 | 25 | 119 | 0.0 | 0.0 | 0.00 | 0.18 | 0.18 | 92 | 1013.3 |
| 20260901173022 | 24 | 73 | 0.0 | 0.0 | 0.00 | 0.18 | 0.18 | 94 | 1013.9 |
| 20260901172517 | 24 | 112 | 0.0 | 0.0 | 0.00 | 0.18 | 0.18 | 94 | 1014.5 |
| 20260901172015 | 23 | 73 | 0.0 | 0.0 | 0.00 | 0.18 | 0.18 | 97 | 1014.4 |
| 20260901171514 | 23 | 109 | 0.0 | 0.0 | 0.00 | 0.18 | 0.18 | 97 | 1014.4 |
| 20260901171014 | 23 | 104 | 0.0 | 0.0 | 0.00 | 0.18 | 0.18 | 97 | 1014.2 |
| 20260901170508 | 23 | 171 | 0.0 | 0.0 | 0.00 | 0.18 | 0.18 | 97 | 1014.4 |
| 20260901170009 | 23 | 110 | 0.0 | 0.0 | 0.00 | 0.18 | 0.18 | 97 | 1014.3 |
| 20260901165503 | 23 | 110 | 0.0 | 0.0 | 0.00 | 0.18 | 0.18 | 98 | 1014.2 |
| 20260901164958 | 23 | 96 | 0.0 | 0.0 | 0.00 | 0.18 | 0.18 | 97 | 1014.3 |
| 20260901164454 | 23 | 133 | 0.0 | 0.0 | 0.13 | 0.18 | 0.18 | 98 | 1014.4 |
| 20260901163948 | 23 | 90 | 0.0 | 0.0 | 0.13 | 0.18 | 0.18 | 98 | 1014.2 |
| 20260901163444 | 23 | 93 | 0.0 | 0.0 | 0.00 | 0.15 | 0.15 | 98 | 1014.3 |
| 20260901162942 | 23 | 88 | 0.0 | 0.0 | 0.00 | 0.15 | 0.15 | 98 | 1014.3 |
| 20260901162438 | 23 | 93 | 0.0 | 0.0 | 0.00 | 0.15 | 0.15 | 98 | 1014.6 |
| 20260901161931 | 23 | 78 | 0.0 | 0.0 | 0.00 | 0.15 | 0.15 | 98 | 1014.6 |
| 20260901161431 | 23 | 83 | 0.0 | 0.0 | 0.18 | 0.15 | 0.15 | 98 | 1015.0 |
| 20260901160926 | 23 | 71 | 0.0 | 0.0 | 0.18 | 0.15 | 0.15 | 98 | 1015.1 |
| 20260901160422 | 23 | 34 | 0.0 | 0.0 | 0.00 | 0.13 | 0.13 | 98 | 1015.3 |
| 20260901155921 | 23 | 18 | 0.0 | 0.0 | 0.13 | 0.13 | 0.13 | 98 | 1015.3 |
| 20260901155421 | 23 | 143 | 0.0 | 0.0 | 0.13 | 0.13 | 0.13 | 98 | 1015.5 |
| 20260901154918 | 23 | 98 | 0.0 | 0.0 | 0.00 | 0.10 | 0.10 | 98 | 1015.6 |
| 20260901154417 | 23 | 147 | 0.0 | 0.0 | 0.00 | 0.10 | 0.10 | 98 | 1015.7 |
| 20260901153912 | 23 | 101 | 0.0 | 0.0 | 0.30 | 0.10 | 0.10 | 99 | 1015.9 |
| 20260901153411 | 23 | 176 | 0.0 | 0.0 | 0.48 | 0.10 | 0.10 | 98 | 1015.8 |
| 20260901152906 | 23 | 156 | 0.0 | 0.0 | 0.30 | 0.08 | 0.08 | 96 | 1015.6 |
| 20260901152400 | 23 | 122 | 0.0 | 0.0 | 0.00 | 0.03 | 0.03 | 94 | 1015.5 |
| 20260901151855 | 23 | 131 | 0.0 | 0.0 | 0.00 | 0.03 | 0.03 | 92 | 1015.6 |
| 20260901151350 | 24 | 185 | 0.0 | 0.0 | 0.00 | 0.03 | 0.03 | 92 | 1015.6 |
| 20260901150849 | 24 | 138 | 0.0 | 0.0 | 0.00 | 0.03 | 0.03 | 91 | 1015.6 |
| 20260901150347 | 24 | 197 | 0.0 | 0.0 | 0.00 | 0.03 | 0.03 | 91 | 1015.9 |
| 20260901145844 | 25 | 198 | 0.0 | 0.0 | 0.00 | 0.03 | 0.03 | 90 | 1015.8 |
| 20260901145339 | 24 | 100 | 0.0 | 0.0 | 0.00 | 0.03 | 0.03 | 89 | 1015.7 |
| 20260901144834 | 24 | 100 | 0.0 | 0.0 | 0.00 | 0.03 | 0.03 | 90 | 1015.6 |
| 20260901144329 | 24 | 84 | 0.0 | 0.0 | 0.00 | 0.03 | 0.03 | 90 | 1015.5 |
| 20260901143825 | 24 | 99 | 0.0 | 0.0 | 0.00 | 0.03 | 0.03 | 89 | 1015.5 |
| 20260901143316 | 24 | 128 | 0.0 | 0.0 | 0.00 | 0.03 | 0.03 | 91 | 1015.5 |
| 20260901142812 | 24 | 137 | 0.0 | 0.0 | 0.00 | 0.03 | 0.03 | 91 | 1015.3 |
| 20260901142310 | 24 | 111 | 0.0 | 0.0 | 0.00 | 0.03 | 0.03 | 90 | 1015.6 |
| 20260901141806 | 24 | 109 | 0.0 | 0.0 | 0.00 | 0.03 | 0.03 | 90 | 1015.3 |
| 20260901141301 | 24 | 108 | 0.0 | 0.0 | 0.00 | 0.03 | 0.03 | 91 | 1015.4 |
| 20260901140800 | 24 | 93 | 0.0 | 0.0 | 0.00 | 0.03 | 0.03 | 91 | 1015.1 |
| 20260901140258 | 23 | 106 | 0.0 | 0.0 | 0.00 | 0.03 | 0.03 | 91 | 1015.2 |
| 20260901135754 | 24 | 84 | 0.0 | 0.0 | 0.00 | 0.03 | 0.03 | 90 | 1015.2 |
| 20260901135253 | 23 | 144 | 0.0 | 0.0 | 0.00 | 0.03 | 0.03 | 91 | 1015.1 |
| 20260901134750 | 24 | 113 | 0.0 | 0.0 | 0.00 | 0.03 | 0.03 | 90 | 1015.3 |
| 20260901134249 | 23 | 70 | 0.0 | 0.0 | 0.00 | 0.03 | 0.03 | 92 | 1015.3 |
| 20260901133748 | 23 | 135 | 0.0 | 0.0 | 0.00 | 0.03 | 0.03 | 92 | 1015.4 |
| 20260901133242 | 23 | 98 | 0.0 | 0.0 | 0.00 | 0.03 | 0.03 | 93 | 1015.2 |
| 20260901132741 | 23 | 67 | 0.0 | 0.0 | 0.00 | 0.03 | 0.03 | 94 | 1015.1 |
| 20260901132236 | 23 | 48 | 0.0 | 0.0 | 0.00 | 0.03 | 0.03 | 94 | 1015.1 |
| 20260901131730 | 23 | 91 | 0.0 | 0.0 | 0.00 | 0.03 | 0.03 | 94 | 1015.5 |
| 20260901131230 | 23 | 101 | 0.0 | 0.0 | 0.00 | 0.03 | 0.03 | 94 | 1015.2 |
| 20260901130725 | 23 | 86 | 0.0 | 0.0 | 0.00 | 0.03 | 0.03 | 94 | 1015.3 |
| 20260901130224 | 23 | 137 | 0.0 | 0.0 | 0.00 | 0.03 | 0.03 | 94 | 1015.2 |
| 20260901125722 | 23 | 136 | 0.0 | 0.0 | 0.00 | 0.03 | 0.03 | 95 | 1015.2 |
| 20260901125218 | 22 | 115 | 0.0 | 0.0 | 0.00 | 0.03 | 0.03 | 95 | 1015.3 |
| 20260901124712 | 23 | 100 | 0.0 | 0.0 | 0.00 | 0.03 | 0.03 | 93 | 1015.0 |
| 20260901124206 | 23 | 102 | 0.0 | 0.0 | 0.00 | 0.03 | 0.03 | 94 | 1015.3 |
| 20260901123701 | 23 | 91 | 0.0 | 0.0 | 0.00 | 0.03 | 0.03 | 94 | 1015.4 |